Regional Weather Roundup
Issued by NWS

Home | Current Version | Previous Version | Text Only | Print | Product List | Glossary Off
Versions: 1 2 3 4 5 6 7 8 9 10 11 12 13 14 15 16 17 18 19 20 21 22 23 24 25 26 27 28 29 30 31 32 33 34 35 36 37 38 39 40 41 42 43 44 45 46 47 48 49 50

000
ASUS43 KFSD 230202
RWRSD

WEATHER ROUNDUP FOR SOUTH DAKOTA
NATIONAL WEATHER SERVICE SIOUX FALLS SD
900 PM CDT SAT APR 22 2017

NOTE: "FAIR" INDICATES FEW OR NO CLOUDS BELOW 12,000 FEET WITH NO
SIGNIFICANT WEATHER AND/OR OBSTRUCTIONS TO VISIBILITY.


SDZ001>005-009-010-012>017-230300-
NORTHWEST AND NORTH CENTRAL SOUTH DAKOTA

CITY           SKY/WX    TMP DP  RH WIND       PRES   REMARKS
BUFFALO          N/A     58  40  51 SE5       29.97F
FAITH            N/A     57  38  48 SE8       30.04F
MOBRIDGE       MOCLDY    59  38  45 S7        30.02F
$$

SDZ012>016-024>037-041>051-057-063-072>074-230300-
SOUTHWEST AND SOUTH CENTRAL SOUTH DAKOTA

CITY           SKY/WX    TMP DP  RH WIND       PRES   REMARKS
RAPID CTY ARPT CLEAR     52  34  50 S8        30.04F
PIERRE         CLEAR     59  35  40 S5        30.06F
CUSTER         CLOUDY    48  26  42 SW7       30.10F
ELLSWORTH AFB  CLEAR     56  34  42 S8        30.03  HAZE
PHILIP         CLEAR     58  37  45 S6        30.06F
PINE RIDGE     CLEAR     56  31  38 S8        30.10F
SPEARFISH      FAIR      55  32  41 CALM      30.06R
WINNER         FAIR      58  33  39 S9        30.12F
$$

SDZ004>011-016>023-039-040-230300-
NORTHEAST SOUTH DAKOTA

CITY           SKY/WX    TMP DP  RH WIND       PRES   REMARKS
ABERDEEN       CLEAR     52  31  44 S9        30.06S
WATERTOWN      CLEAR     52  37  56 SW8       30.11R
BROOKINGS      CLEAR     56  37  49 SW7       30.13
SISSETON         N/A     58  38  47 SW9       30.06S
$$

SDZ017-020-022-023-036>040-048>070-230300-
SOUTHEAST SOUTH DAKOTA

CITY           SKY/WX    TMP DP  RH WIND       PRES   REMARKS
SIOUX FALLS    PTCLDY    58  38  47 SW5       30.14F
HURON          CLEAR     57  37  47 S8        30.11S
CHAMBERLAIN    CLEAR     53  37  55 SE7       30.11F
MITCHELL       CLEAR     61  38  42 S5        30.13F
YANKTON        CLEAR     59  34  38 SE6       30.17S
$$

ABBREVIATIONS USED IN REMARKS
   TC - TEMPERATURE IN CELSIUS
  WCI - WIND CHILL INDEX
   HX - HEAT INDEX
  VSB - VISIBILITY




USA.gov is the U.S. government's official web portal to all federal, state and local government web resources and services.